User: anonymous   Login
Location: Unspecified
(0.0000°N, 0.0000°E)
Time: 17:55:57
(UTC+00:00)
Language:

COSMOS 2484 - Orbit

View from above orbital plane
View from above orbital plane
View from above satellite
View from above satellite

Ground track
Ground track

The orbit data is extracted from the following two-line orbital elements,

1 39059U 13001C   19016.69149737 +.00000048 +00000-0 +27800-3 0  9996
2 39059 082.5034 105.9144 0025719 180.8614 179.2428 12.42878040272297
Epoch (UTC): 16 January 2019 16:35:45
Eccentricity: 0.0025719
inclination: 82.5034°
perigee height: 1474 km
apogee height: 1514 km
right ascension of ascending node: 105.9144°
argument of perigee: 180.8614°
revolutions per day: 12.42878040
mean anomaly at epoch: 179.2428°
orbit number at epoch: 27229

The dashed part of the orbit path shows where the satellite is in the earth's shadow,  

DLR